Regional Weather Roundup
Issued by NWS

Home | Current Version | Previous Version | Text Only | Print | Product List | Glossary On
Versions: 1 2 3 4 5 6 7 8 9 10 11 12 13 14 15 16 17 18 19 20 21 22 23 24 25 26 27 28 29 30 31 32 33 34 35 36 37 38 39 40 41 42 43 44 45 46 47 48 49 50
000
ASUS44 KFWD 231115
RWRTX
NORTH TEXAS HOURLY WEATHER ROUNDUP
NATIONAL WEATHER SERVICE FORT WORTH TX
600 AM CDT THU OCT 23 2014

NOTE: "FAIR" INDICATES FEW OR NO CLOUDS BELOW 12,000 FEET WITH NO
SIGNIFICANT WEATHER AND/OR OBSTRUCTIONS TO VISIBILITY.

TXZ118-119-231200-
DALLAS/FORT WORTH METROPLEX

CITY           SKY/WX    TMP DP  RH WIND       PRES   REMARKS
DFW AIRPORT    CLOUDY    65  54  67 SE6       30.12R
DALLAS LOVE    CLOUDY    65  54  67 SE7       30.12R
FTW MEACHAM    CLOUDY    67  53  61 SE7       30.11R
DAL-EXECUTIVE  CLOUDY    65  54  67 SE7       30.12R
FTW-ALLIANCE   CLOUDY    65  53  65 SE6       30.12R
FTW-NAS-JRB    CLOUDY    72  52  49 SE7       30.16R
FTW-SPINKS     CLOUDY    65  54  69 SE5       30.13S
ARLINGTON      CLOUDY    66  54  65 SE6       30.12R
GRAND PRAIRIE  CLOUDY    65  55  68 SE5       30.13S
LANCASTER      CLOUDY    63  54  73 SE3       30.13S
$$

TXZ091>094-102>105-117-120-121-131>134-231200-
NORTH CENTRAL TEXAS

CITY           SKY/WX    TMP DP  RH WIND       PRES   REMARKS
SHRMAN/DENISON CLOUDY    60  58  92 E7        30.14S
GAINESVILLE    CLOUDY    61  55  81 SE8       30.15R
BOWIE          CLOUDY    63  56  77 SE6       30.12S
BRIDGEPORT     CLOUDY    65  57  74 SE3       30.13S
DECATUR        MOCLDY    63  54  72 E6        30.12S
DENTON         CLOUDY    64  55  72 SE6       30.12R
MCKINNEY       CLOUDY    62  55  77 E3        30.13S
GREENVILLE     CLOUDY    59  54  82 CALM      30.14S
ROCKWALL       CLOUDY    60  55  83 E7        30.12F
TERRELL        LGT RAIN  62  55  77 E3        30.13S
WAXAHACHIE     CLOUDY    62  57  83 CALM      30.14R
CLEBURNE       CLOUDY    64  57  77 SE7       30.13S
GRANBURY       CLOUDY    67  57  70 E5        30.13R
$$

TXZ083>090-098>101-113>116-127>130-139>142-154-155-231200-
WESTERN NORTH TEXAS

CITY           SKY/WX    TMP DP  RH WIND       PRES   REMARKS
WICHITA FALLS  CLOUDY    64  59  83 S7        30.09R
WF-KICKAPOO    CLOUDY    64  58  82 SE6       30.11R
VERNON           N/A     61  57  88 CALM      30.10S VSB 1/2
ABILENE        CLOUDY    63  57  81 CALM      30.13R
ABILENE-DYESS  CLOUDY    61  57  88 SE1       30.11S
BRECKENRIDGE   CLOUDY    67  58  74 S6        30.10S
GRAHAM         MOCLDY    65  58  79 CALM      30.10R
MINERAL WELLS  CLOUDY    64  57  78 SE7       30.10R
STEPHENVILLE   CLOUDY    64  57  76 CALM      30.15R
COMANCHE       DRIZZLE   64  62  93 SE3       30.12S
BROWNWOOD      CLOUDY    64  59  82 CALM      30.12S
COLEMAN        CLOUDY    63  59  88 CALM      30.12S
BRADY          PTCLDY    63  54  72 CALM      30.12S
$$

TXZ143>147-156>162-174-175-231200-
CENTRAL TEXAS

CITY           SKY/WX    TMP DP  RH WIND       PRES   REMARKS
WACO           LGT RAIN  64  59  83 CALM      30.11S
WACO-MCGREGOR  CLOUDY    64  54  68 SE5       30.12S
HILLSBORO      CLOUDY    64  55  71 E6        30.12S
CORSICANA      LGT RAIN  62  57  83 SE3       30.14R
MEXIA          CLOUDY    60  56  88 CALM      30.11S
HEARNE         CLOUDY    64  57  78 CALM      30.11R
CAMERON        CLOUDY    64  59  84 CALM      30.10F
TEMPLE         CLOUDY    64  54  68 E3        30.11S
KILLEEN        CLOUDY    66  57  72 CALM      30.11R
KILLEEN-SKYLRK CLOUDY    64  55  72 CALM      30.11R
FORT HOOD      CLOUDY    67  61  81 CALM      30.12R
GATESVILLE     CLOUDY    64  61  88 CALM      30.13F
HAMILTON       CLOUDY    65  57  75 S3        30.13S
LAMPASAS       CLOUDY    63  60  89 CALM      30.10F
$$

TXZ095>097-106>112-122>126-135>138-148>153-164>167-231200-
EAST TEXAS

CITY           SKY/WX    TMP DP  RH WIND       PRES   REMARKS
PARIS          CLOUDY    57  48  72 E3        30.16R
SULPHUR SPRNGS CLOUDY    59  53  80 CALM      30.17R
MOUNT PLEASANT CLOUDY    57  52  82 CALM      30.16R
MINEOLA        CLOUDY    57  55  94 CALM      30.15S
TYLER          CLOUDY    60  53  77 CALM      30.13R
LONGVIEW       CLOUDY    57  53  86 CALM      30.13R
MARSHALL       CLOUDY    58  54  86 CALM      30.15R
ATHENS         CLOUDY    57  54  88 CALM      30.12S
PALESTINE      CLOUDY    61  54  77 NE3       30.13S
JACKSONVILLE   CLOUDY    58  53  83 CALM      30.15R
HENDERSON      CLOUDY    58  51  79 CALM      30.14R
NACOGDOCHES    CLOUDY    55  52  88 E6        30.12S
LUFKIN         CLOUDY    61  52  72 NE5       30.11R
$$

SUPPLEMENTAL OBSERVATIONS (CENTRAL)

CITY           SKY/WX    TMP DP  RH WIND       PRES   REMARKS
LAKE TEXOMA      N/A     59  55  88 E5          N/A
CADDO GRASSLND   N/A     57  54  88 E1          N/A
PAT MAYSE LAKE   N/A     57  52  82 N1          N/A
GREENVILLE       N/A     61  52  72 E5          N/A
CEDAR HILL       N/A     64  54  68 SE2         N/A
PALESTINE        N/A     57  54  88 NW1         N/A
LAKE LIMESTONE   N/A     63  54  72 NE3         N/A
MCGREGOR         N/A     64  59  82 CALM        N/A
TEMPLE           N/A     64  57  77 E1          N/A
$$

SUPPLEMENTAL OBSERVATIONS (WEST)

CITY           SKY/WX    TMP DP  RH WIND       PRES   REMARKS
MILLERS CREEK    N/A     63  57  82 SW5         N/A
POSSUM KINGDOM   N/A     66  55  68 S6          N/A
LBJ GRASSLAND    N/A     64  54  68 SE6         N/A
GRANBURY         N/A     66  55  68 SE5         N/A
COMANCHE         N/A     63  57  82 SE3         N/A
HAMBY            N/A     63  55  77 SE2         N/A
COLORADO BEND    N/A     64  57  77 CALM        N/A
$$

SUPPLEMENTAL OBSERVATIONS (EAST)

CITY           SKY/WX    TMP DP  RH WIND       PRES   REMARKS
CLARKSVILLE      N/A     55  52  88 E1          N/A
TEXARKANA        N/A     52  48  87 CALM        N/A
LINDEN           N/A     55  52  88 N1          N/A
CADDO LAKE       N/A     54  52  94 CALM        N/A
GILMER           N/A     57  52  82 CALM        N/A
HENDERSON        N/A     57  50  77 N2          N/A
$$

SUPPLEMENTAL OBSERVATIONS ARE A COLLECTION OF AUTOMATED INSTRUMENTS
THAT ARE MAINTAINED BY A VARIETY OF FEDERAL AND STATE AGENCIES.
CERTAIN ELEMENTS...SUCH AS HUMIDITY VALUES AND SUSTAINED WIND
SPEEDS...MAY BE APPROXIMATED.




USA.gov is the U.S. government's official web portal to all federal, state and local government web resources and services.